Time,TemperatureF,DewpointF,PressureIn,WindDirection,WindDirectionDegrees,WindSpeedMPH,WindSpeedGustMPH,Humidity,HourlyPrecipIn,Conditions,Clouds,dailyrainin,SoftwareType,DateUTC
2013-06-07 00:03:00,52.0,48.0,30.02,ENE,64,0.0,-999.0,87,-99.99,,,-99.99,,2013-06-07 05:03:00,
2013-06-07 00:12:00,52.0,48.0,30.02,ENE,64,0.0,-999.0,87,-99.99,,,-99.99,,2013-06-07 05:12:00,
2013-06-07 00:22:00,52.0,49.0,30.02,ENE,64,0.0,-999.0,88,-99.99,,,-99.99,,2013-06-07 05:22:00,
2013-06-07 00:32:00,52.0,48.0,30.01,ENE,64,0.0,-999.0,87,-99.99,,,-99.99,,2013-06-07 05:32:00,
2013-06-07 00:42:00,52.0,48.0,30.01,ENE,64,0.0,-999.0,87,-99.99,,,-99.99,,2013-06-07 05:42:00,
2013-06-07 00:52:00,52.0,48.0,30.01,ENE,64,0.0,-999.0,87,-99.99,,,-99.99,,2013-06-07 05:52:00,
2013-06-07 01:02:00,51.0,47.0,30.01,ENE,64,0.0,-999.0,87,-99.99,,,-99.99,,2013-06-07 06:02:00,
2013-06-07 01:12:00,51.0,47.0,30.01,ENE,64,0.0,-999.0,87,-99.99,,,-99.99,,2013-06-07 06:12:00,
2013-06-07 01:22:00,51.0,48.0,30.01,ENE,64,0.0,-999.0,89,-99.99,,,-99.99,,2013-06-07 06:22:00,
2013-06-07 01:32:00,51.0,48.0,30.01,ENE,64,0.0,-999.0,88,-99.99,,,-99.99,,2013-06-07 06:32:00,
2013-06-07 01:42:00,51.0,48.0,30.01,ENE,64,0.0,-999.0,88,-99.99,,,-99.99,,2013-06-07 06:42:00,
2013-06-07 01:52:00,51.0,48.0,30.01,ENE,64,0.0,-999.0,88,-99.99,,,-99.99,,2013-06-07 06:52:00,
2013-06-07 02:02:00,51.0,48.0,30.01,ENE,64,0.0,-999.0,89,-99.99,,,-99.99,,2013-06-07 07:02:00,
2013-06-07 02:12:00,51.0,48.0,30.01,ENE,64,0.0,-999.0,89,-99.99,,,-99.99,,2013-06-07 07:12:00,
2013-06-07 02:22:00,51.0,48.0,30.00,ENE,64,0.0,-999.0,89,-99.99,,,-99.99,,2013-06-07 07:22:00,
2013-06-07 02:32:00,50.0,47.0,30.00,ENE,64,0.0,-999.0,90,-99.99,,,-99.99,,2013-06-07 07:32:00,
2013-06-07 02:42:00,50.0,47.0,30.00,ENE,64,0.0,-999.0,90,-99.99,,,-99.99,,2013-06-07 07:42:00,
2013-06-07 02:52:00,49.0,46.0,30.00,ENE,64,0.0,-999.0,90,-99.99,,,-99.99,,2013-06-07 07:52:00,
2013-06-07 03:02:00,49.0,46.0,30.00,ENE,64,0.0,-999.0,91,-99.99,,,-99.99,,2013-06-07 08:02:00,
2013-06-07 03:12:00,49.0,46.0,30.00,ENE,64,0.0,-999.0,91,-99.99,,,-99.99,,2013-06-07 08:12:00,
2013-06-07 03:22:00,49.0,46.0,30.00,ENE,64,0.0,-999.0,91,-99.99,,,-99.99,,2013-06-07 08:22:00,
2013-06-07 03:32:00,49.0,46.0,29.99,ENE,64,0.0,-999.0,91,-99.99,,,-99.99,,2013-06-07 08:32:00,
2013-06-07 03:42:00,49.0,46.0,29.99,ENE,64,0.0,-999.0,91,-99.99,,,-99.99,,2013-06-07 08:42:00,
2013-06-07 03:52:00,49.0,46.0,29.99,ENE,64,0.0,-999.0,91,-99.99,,,-99.99,,2013-06-07 08:52:00,
2013-06-07 04:02:00,48.0,45.0,29.99,ENE,64,0.0,-999.0,91,-99.99,,,-99.99,,2013-06-07 09:02:00,
2013-06-07 04:12:00,48.0,45.0,29.99,ENE,64,0.0,-999.0,91,-99.99,,,-99.99,,2013-06-07 09:12:00,
2013-06-07 04:22:00,48.0,46.0,29.99,ENE,64,0.0,-999.0,92,-99.99,,,-99.99,,2013-06-07 09:22:00,
2013-06-07 04:32:00,48.0,46.0,29.99,ENE,64,0.0,-999.0,92,-99.99,,,-99.99,,2013-06-07 09:32:00,
2013-06-07 04:43:00,48.0,46.0,29.99,ENE,64,0.0,-999.0,92,-99.99,,,-99.99,,2013-06-07 09:43:00,
2013-06-07 04:53:00,48.0,46.0,29.99,ENE,64,0.0,-999.0,93,-99.99,,,-99.99,,2013-06-07 09:53:00,
2013-06-07 05:02:00,49.0,47.0,30.00,ENE,64,0.0,-999.0,93,-99.99,,,-99.99,,2013-06-07 10:02:00,
2013-06-07 05:12:00,49.0,47.0,30.00,ENE,64,0.0,-999.0,93,-99.99,,,-99.99,,2013-06-07 10:12:00,
2013-06-07 05:23:00,49.0,47.0,30.00,ENE,64,0.0,-999.0,93,-99.99,,,-99.99,,2013-06-07 10:23:00,
2013-06-07 05:32:00,48.0,46.0,30.00,ENE,64,0.0,-999.0,92,-99.99,,,-99.99,,2013-06-07 10:32:00,
2013-06-07 05:42:00,48.0,46.0,30.00,ENE,64,0.0,-999.0,92,-99.99,,,-99.99,,2013-06-07 10:42:00,
2013-06-07 05:52:00,48.0,46.0,30.00,ENE,64,0.0,-999.0,93,-99.99,,,-99.99,,2013-06-07 10:52:00,
2013-06-07 06:02:00,48.0,46.0,30.00,ENE,64,0.0,-999.0,92,-99.99,,,-99.99,,2013-06-07 11:02:00,
2013-06-07 06:12:00,48.0,46.0,30.00,ENE,64,0.0,-999.0,92,-99.99,,,-99.99,,2013-06-07 11:12:00,
2013-06-07 06:22:00,47.0,45.0,30.01,ENE,64,0.0,-999.0,93,-99.99,,,-99.99,,2013-06-07 11:22:00,
2013-06-07 06:32:00,47.0,45.0,30.01,ENE,64,0.0,-999.0,93,-99.99,,,-99.99,,2013-06-07 11:32:00,
2013-06-07 06:42:00,47.0,45.0,30.01,ENE,64,0.0,-999.0,93,-99.99,,,-99.99,,2013-06-07 11:42:00,
2013-06-07 06:52:00,47.0,45.0,30.01,ENE,64,0.0,-999.0,93,-99.99,,,-99.99,,2013-06-07 11:52:00,
2013-06-07 07:02:00,48.0,46.0,30.02,ENE,64,0.0,-999.0,93,-99.99,,,-99.99,,2013-06-07 12:02:00,
2013-06-07 07:12:00,48.0,46.0,30.02,ENE,64,0.0,-999.0,93,-99.99,,,-99.99,,2013-06-07 12:12:00,
2013-06-07 07:22:00,49.0,47.0,30.02,ENE,65,0.0,-999.0,93,-99.99,,,-99.99,,2013-06-07 12:22:00,
2013-06-07 07:32:00,50.0,48.0,30.02,ENE,64,0.0,-999.0,92,-99.99,,,-99.99,,2013-06-07 12:32:00,
2013-06-07 07:42:00,50.0,48.0,30.02,ENE,64,0.0,-999.0,92,-99.99,,,-99.99,,2013-06-07 12:42:00,
2013-06-07 07:52:00,52.0,49.0,30.02,ENE,64,0.0,-999.0,90,-99.99,,,-99.99,,2013-06-07 12:52:00,
2013-06-07 08:02:00,53.0,49.0,30.02,ENE,64,0.0,-999.0,87,-99.99,,,-99.99,,2013-06-07 13:02:00,
2013-06-07 08:12:00,53.0,49.0,30.02,ENE,64,0.0,-999.0,87,-99.99,,,-99.99,,2013-06-07 13:12:00,
2013-06-07 08:22:00,55.0,51.0,30.01,ENE,64,1.0,-999.0,85,-99.99,,,-99.99,,2013-06-07 13:22:00,
2013-06-07 08:32:00,56.0,50.0,30.01,ENE,64,2.0,-999.0,79,-99.99,,,-99.99,,2013-06-07 13:32:00,
2013-06-07 08:42:00,56.0,50.0,30.01,ENE,64,2.0,-999.0,79,-99.99,,,-99.99,,2013-06-07 13:42:00,
2013-06-07 08:52:00,57.0,50.0,30.01,ENE,64,1.0,-999.0,76,-99.99,,,-99.99,,2013-06-07 13:52:00,
2013-06-07 09:02:00,57.0,49.0,30.01,ENE,64,1.0,-999.0,75,-99.99,,,-99.99,,2013-06-07 14:02:00,
2013-06-07 09:12:00,57.0,49.0,30.01,ENE,64,1.0,-999.0,75,-99.99,,,-99.99,,2013-06-07 14:12:00,
2013-06-07 09:22:00,59.0,50.0,30.01,ENE,64,2.0,-999.0,72,-99.99,,,-99.99,,2013-06-07 14:22:00,
2013-06-07 09:32:00,59.0,49.0,30.01,ENE,64,3.0,-999.0,69,-99.99,,,-99.99,,2013-06-07 14:32:00,
2013-06-07 09:42:00,59.0,49.0,30.01,ENE,64,3.0,-999.0,69,-99.99,,,-99.99,,2013-06-07 14:42:00,
2013-06-07 09:52:00,60.0,49.0,30.01,ENE,64,1.0,-999.0,67,-99.99,,,-99.99,,2013-06-07 14:52:00,
2013-06-07 10:02:00,61.0,49.0,30.01,ENE,64,1.0,-999.0,65,-99.99,,,-99.99,,2013-06-07 15:02:00,
2013-06-07 10:12:00,61.0,49.0,30.01,ENE,64,1.0,-999.0,65,-99.99,,,-99.99,,2013-06-07 15:12:00,
2013-06-07 10:22:00,62.0,50.0,30.00,ENE,64,3.0,-999.0,64,-99.99,,,-99.99,,2013-06-07 15:22:00,
2013-06-07 10:33:00,61.0,49.0,30.00,ENE,64,1.0,-999.0,64,-99.99,,,-99.99,,2013-06-07 15:33:00,
2013-06-07 10:43:00,61.0,49.0,30.00,ENE,64,1.0,-999.0,64,-99.99,,,-99.99,,2013-06-07 15:43:00,
2013-06-07 10:53:00,62.0,50.0,29.99,ENE,64,2.0,-999.0,64,-99.99,,,-99.99,,2013-06-07 15:53:00,
2013-06-07 11:03:00,62.0,49.0,29.99,ENE,65,2.0,-999.0,62,-99.99,,,-99.99,,2013-06-07 16:03:00,
2013-06-07 11:13:00,62.0,49.0,29.99,ENE,65,2.0,-999.0,62,-99.99,,,-99.99,,2013-06-07 16:13:00,
2013-06-07 11:22:00,64.0,50.0,29.99,ENE,64,2.0,-999.0,60,-99.99,,,-99.99,,2013-06-07 16:22:00,
2013-06-07 11:33:00,64.0,50.0,29.98,ENE,69,3.0,-999.0,61,-99.99,,,-99.99,,2013-06-07 16:33:00,
2013-06-07 11:43:00,64.0,50.0,29.98,ENE,69,3.0,-999.0,61,-99.99,,,-99.99,,2013-06-07 16:43:00,
2013-06-07 11:53:00,65.0,50.0,29.98,ENE,70,2.0,-999.0,58,-99.99,,,-99.99,,2013-06-07 16:53:00,
2013-06-07 12:02:00,65.0,50.0,29.97,ENE,73,2.0,-999.0,58,-99.99,,,-99.99,,2013-06-07 17:02:00,
2013-06-07 12:12:00,65.0,50.0,29.97,ENE,73,2.0,-999.0,58,-99.99,,,-99.99,,2013-06-07 17:12:00,
2013-06-07 12:22:00,65.0,49.0,29.97,ENE,73,1.0,-999.0,56,-99.99,,,-99.99,,2013-06-07 17:22:00,
2013-06-07 12:32:00,65.0,49.0,29.97,East,80,4.0,-999.0,57,-99.99,,,-99.99,,2013-06-07 17:32:00,
2013-06-07 12:42:00,65.0,49.0,29.97,East,80,4.0,-999.0,57,-99.99,,,-99.99,,2013-06-07 17:42:00,
2013-06-07 12:52:00,66.0,49.0,29.97,East,91,4.0,-999.0,54,-99.99,,,-99.99,,2013-06-07 17:52:00,
2013-06-07 13:05:00,66.0,49.0,29.97,East,92,2.0,-999.0,55,-99.99,,,-99.99,,2013-06-07 18:05:00,
2013-06-07 13:17:00,66.0,49.0,29.97,East,92,2.0,-999.0,55,-99.99,,,-99.99,,2013-06-07 18:17:00,
2013-06-07 13:23:00,65.0,49.0,29.96,North,360,4.0,-999.0,56,-99.99,,,-99.99,,2013-06-07 18:23:00,
2013-06-07 13:35:00,64.0,50.0,29.96,North,360,2.0,-999.0,60,-99.99,,,-99.99,,2013-06-07 18:35:00,
2013-06-07 13:44:00,64.0,50.0,29.96,North,360,2.0,-999.0,60,-99.99,,,-99.99,,2013-06-07 18:44:00,
2013-06-07 13:58:00,67.0,51.0,29.95,SE,138,5.0,-999.0,56,-99.99,,,-99.99,,2013-06-07 18:58:00,
2013-06-07 14:05:00,68.0,51.0,29.94,North,360,5.0,-999.0,54,-99.99,,,-99.99,,2013-06-07 19:05:00,
2013-06-07 14:14:00,68.0,51.0,29.94,North,360,5.0,-999.0,54,-99.99,,,-99.99,,2013-06-07 19:14:00,
2013-06-07 14:28:00,68.0,51.0,29.94,North,360,5.0,-999.0,54,-99.99,,,-99.99,,2013-06-07 19:28:00,
2013-06-07 14:46:00,68.0,49.0,29.94,North,360,2.0,-999.0,51,-99.99,,,-99.99,,2013-06-07 19:46:00,
2013-06-07 15:07:00,67.0,50.0,29.93,SE,142,2.0,-999.0,54,-99.99,,,-99.99,,2013-06-07 20:07:00,
2013-06-07 15:16:00,67.0,50.0,29.93,SE,142,2.0,-999.0,54,-99.99,,,-99.99,,2013-06-07 20:16:00,
2013-06-07 15:24:00,66.0,49.0,29.93,SE,141,2.0,-999.0,55,-99.99,,,-99.99,,2013-06-07 20:24:00,
2013-06-07 15:38:00,67.0,50.0,29.93,East,96,3.0,-999.0,54,-99.99,,,-99.99,,2013-06-07 20:38:00,
2013-06-07 15:55:00,67.0,50.0,29.92,East,97,1.0,-999.0,54,-99.99,,,-99.99,,2013-06-07 20:55:00,
2013-06-07 16:05:00,65.0,49.0,29.92,North,360,2.0,-999.0,56,-99.99,,,-99.99,,2013-06-07 21:05:00,
2013-06-07 16:38:00,66.0,49.0,29.91,East,96,2.0,-999.0,54,-99.99,,,-99.99,,2013-06-07 21:38:00,
2013-06-07 16:45:00,66.0,49.0,29.91,East,96,2.0,-999.0,54,-99.99,,,-99.99,,2013-06-07 21:45:00,
2013-06-07 16:55:00,70.0,49.0,29.90,ESE,102,2.0,-999.0,48,-99.99,,,-99.99,,2013-06-07 21:55:00,
2013-06-07 17:07:00,72.0,49.0,29.90,ESE,113,3.0,-999.0,45,-99.99,,,-99.99,,2013-06-07 22:07:00,
2013-06-07 17:21:00,72.0,49.0,29.90,ESE,113,3.0,-999.0,45,-99.99,,,-99.99,,2013-06-07 22:21:00,
2013-06-07 17:27:00,70.0,48.0,29.89,North,360,3.0,-999.0,46,-99.99,,,-99.99,,2013-06-07 22:27:00,
2013-06-07 17:37:00,70.0,48.0,29.89,North,360,3.0,-999.0,46,-99.99,,,-99.99,,2013-06-07 22:37:00,
2013-06-07 17:46:00,70.0,48.0,29.89,North,360,3.0,-999.0,46,-99.99,,,-99.99,,2013-06-07 22:46:00,
2013-06-07 18:07:00,69.0,48.0,29.88,North,360,0.0,-999.0,48,-99.99,,,-99.99,,2013-06-07 23:07:00,
2013-06-07 18:18:00,69.0,48.0,29.88,North,360,0.0,-999.0,48,-99.99,,,-99.99,,2013-06-07 23:18:00,
2013-06-07 18:28:00,70.0,49.0,29.88,North,360,1.0,-999.0,47,-99.99,,,-99.99,,2013-06-07 23:28:00,
2013-06-07 18:36:00,70.0,48.0,29.87,SE,146,6.0,-999.0,46,-99.99,,,-99.99,,2013-06-07 23:36:00,
2013-06-07 18:49:00,70.0,48.0,29.87,SE,146,6.0,-999.0,46,-99.99,,,-99.99,,2013-06-07 23:49:00,
2013-06-07 18:55:00,69.0,48.0,29.86,SE,142,2.0,-999.0,48,-99.99,,,-99.99,,2013-06-07 23:55:00,
2013-06-07 19:10:00,68.0,48.0,29.86,SE,139,1.0,-999.0,49,-99.99,,,-99.99,,2013-06-08 00:10:00,
2013-06-07 19:17:00,68.0,50.0,29.85,SE,137,2.0,-999.0,52,-99.99,,,-99.99,,2013-06-08 00:17:00,
2013-06-07 19:26:00,68.0,50.0,29.85,SE,137,2.0,-999.0,52,-99.99,,,-99.99,,2013-06-08 00:26:00,
2013-06-07 19:34:00,67.0,49.0,29.85,North,360,3.0,-999.0,52,-99.99,,,-99.99,,2013-06-08 00:34:00,
2013-06-07 19:54:00,66.0,48.0,29.85,North,360,2.0,-999.0,53,-99.99,,,-99.99,,2013-06-08 00:54:00,
2013-06-07 20:06:00,65.0,48.0,29.85,North,360,6.0,-999.0,54,-99.99,,,-99.99,,2013-06-08 01:06:00,
2013-06-07 20:18:00,65.0,48.0,29.85,North,360,6.0,-999.0,54,-99.99,,,-99.99,,2013-06-08 01:18:00,
2013-06-07 20:26:00,64.0,48.0,29.85,North,360,5.0,-999.0,56,-99.99,,,-99.99,,2013-06-08 01:26:00,
2013-06-07 20:38:00,64.0,49.0,29.85,ESE,111,6.0,-999.0,58,-99.99,,,-99.99,,2013-06-08 01:38:00,
2013-06-07 20:44:00,64.0,49.0,29.85,ESE,111,6.0,-999.0,58,-99.99,,,-99.99,,2013-06-08 01:44:00,
2013-06-07 20:55:00,63.0,49.0,29.85,ESE,111,6.0,-999.0,60,-99.99,,,-99.99,,2013-06-08 01:55:00,
2013-06-07 21:08:00,63.0,50.0,29.85,ESE,107,6.0,-999.0,62,-99.99,,,-99.99,,2013-06-08 02:08:00,
2013-06-07 21:14:00,63.0,50.0,29.85,ESE,107,6.0,-999.0,62,-99.99,,,-99.99,,2013-06-08 02:14:00,
2013-06-07 21:28:00,62.0,49.0,29.85,North,360,8.0,-999.0,63,-99.99,,,-99.99,,2013-06-08 02:28:00,
2013-06-07 21:34:00,62.0,50.0,29.85,North,360,7.0,-999.0,64,-99.99,,,-99.99,,2013-06-08 02:34:00,
2013-06-07 21:47:00,62.0,50.0,29.85,North,360,7.0,-999.0,64,-99.99,,,-99.99,,2013-06-08 02:47:00,
2013-06-07 21:54:00,61.0,49.0,29.85,North,360,5.0,-999.0,65,-99.99,,,-99.99,,2013-06-08 02:54:00,
2013-06-07 22:08:00,61.0,50.0,29.85,North,360,4.0,-999.0,66,-99.99,,,-99.99,,2013-06-08 03:08:00,
2013-06-07 22:15:00,61.0,50.0,29.85,North,360,4.0,-999.0,66,-99.99,,,-99.99,,2013-06-08 03:15:00,
2013-06-07 22:25:00,61.0,50.0,29.85,North,360,5.0,-999.0,67,-99.99,,,-99.99,,2013-06-08 03:25:00,
2013-06-07 22:36:00,61.0,50.0,29.85,North,360,4.0,-999.0,67,-99.99,,,-99.99,,2013-06-08 03:36:00,
2013-06-07 22:49:00,61.0,50.0,29.85,North,360,4.0,-999.0,67,-99.99,,,-99.99,,2013-06-08 03:49:00,
2013-06-07 22:55:00,60.0,50.0,29.86,North,360,5.0,-999.0,69,-99.99,,,-99.99,,2013-06-08 03:55:00,
2013-06-07 23:03:00,60.0,50.0,29.85,North,360,6.0,-999.0,70,-99.99,,,-99.99,,2013-06-08 04:03:00,
2013-06-07 23:12:00,60.0,50.0,29.85,North,360,6.0,-999.0,70,-99.99,,,-99.99,,2013-06-08 04:12:00,
2013-06-07 23:23:00,59.0,49.0,29.85,North,360,6.0,-999.0,70,-99.99,,,-99.99,,2013-06-08 04:23:00,
2013-06-07 23:33:00,59.0,50.0,29.85,North,360,5.0,-999.0,72,-99.99,,,-99.99,,2013-06-08 04:33:00,
2013-06-07 23:42:00,59.0,50.0,29.85,North,360,5.0,-999.0,72,-99.99,,,-99.99,,2013-06-08 04:42:00,
2013-06-07 23:53:00,59.0,50.0,29.85,North,360,4.0,-999.0,72,-99.99,,,-99.99,,2013-06-08 04:53:00,